DateTimeUTC,F1_A11,F1_S11,BsB_S11,BsG_S11,BsR_S11,BbsB_S11,BbsG_S11,BbsR_S11,BaB_A11,BaG_A11,BaR_A11,Tu_S11,T_S11,Uu_S11,U_S11,P_S11,T1_A11
2021-07-06T22:00:00Z,00000200,20000000,,,,,,,0000.29,0000.30,0000.21,19.2,26.0,05.6,03.7,0660.0,31.2
2021-07-06T22:01:00Z,00000200,20000000,,,,,,,-000.49,-000.11,-000.55,19.1,26.0,05.6,03.7,0660.0,31.2
2021-07-06T22:02:00Z,00000200,20000000,,,,,,,0000.03,0000.07,0000.36,19.1,26.0,05.6,03.7,0660.0,31.2
2021-07-06T22:03:00Z,00000200,60000000,,,,,,,-000.01,-000.25,0000.08,19.1,26.0,05.6,03.7,0660.0,31.2
2021-07-06T22:04:00Z,00000200,40000000,0000.25,-000.46,-000.21,0000.28,0000.25,-000.01,0000.21,0000.09,0000.20,19.2,25.8,05.7,03.8,0660.8,31.2
2021-07-06T22:05:00Z,00000200,00000000,0000.60,-000.09,-000.01,0000.29,0000.01,0000.16,-000.12,0000.11,-000.58,19.2,25.7,05.6,03.8,0660.9,31.2
2021-07-06T22:06:00Z,00000200,00000000,0000.40,0000.35,-000.25,0000.79,0000.23,0000.18,0000.20,-000.04,0000.17,19.3,25.7,05.6,03.8,0660.9,31.2
2021-07-06T22:07:00Z,00000200,00000000,0000.43,0000.07,-000.04,0000.65,0000.33,0000.08,0000.01,-000.11,0000.38,19.4,25.7,05.5,03.8,0660.9,31.2
2021-07-06T22:08:00Z,00000200,00000000,-000.33,0000.27,0000.17,0000.35,0000.31,-000.16,-000.40,0000.01,-000.39,19.5,25.8,05.5,03.7,0660.9,31.2
2021-07-06T22:09:00Z,00000200,00000000,-000.41,-000.02,-000.09,0000.21,0000.26,0000.12,0000.17,-000.02,0000.12,19.6,25.9,05.3,03.6,0660.9,31.2
2021-07-06T22:10:00Z,00000200,00000000,-000.38,0000.32,0000.05,0000.99,0000.30,0000.21,-000.44,-000.22,-000.04,19.7,25.9,05.2,03.6,0660.9,31.2
2021-07-06T22:11:00Z,00000200,00000000,0000.40,0000.49,0000.26,-000.10,0000.05,0000.40,-000.33,-000.18,-000.13,19.7,25.9,05.0,03.5,0660.9,31.3
2021-07-06T22:12:00Z,00000200,00000000,0000.03,0000.07,-000.15,0000.76,0000.63,-000.11,0000.26,0000.16,0000.04,19.7,25.9,05.1,03.5,0660.9,31.3
2021-07-06T22:13:00Z,00000200,00000000,-000.13,0000.04,-000.04,0000.44,0000.06,0000.12,-000.23,-000.02,-000.05,19.7,25.9,05.1,03.5,0660.9,31.2
2021-07-06T22:14:00Z,00000200,00000000,-000.16,-000.05,-000.06,0000.49,-000.05,-000.22,0000.26,-000.17,0000.14,19.7,25.9,05.0,03.4,0660.9,31.2
2021-07-06T22:15:00Z,00000200,00000000,-000.33,0000.31,-000.22,0000.34,0000.03,0000.09,0000.02,-000.08,-000.09,19.7,25.9,05.1,03.5,0660.9,31.2
2021-07-06T22:16:00Z,00000200,00000000,0000.68,0000.09,-000.08,0000.28,-000.23,-000.00,0000.28,0000.36,0000.33,19.6,25.9,05.2,03.5,0660.9,31.2
2021-07-06T22:17:00Z,00000200,00000000,0000.00,0000.09,-000.09,0000.28,0000.03,0000.25,0000.16,0000.06,-000.18,19.6,25.9,05.2,03.6,0660.9,31.2
2021-07-06T22:18:00Z,00000200,00000000,0000.38,-000.38,0000.09,0000.18,-000.03,0000.33,-000.11,0000.11,-000.08,19.6,25.9,05.3,03.6,0660.9,31.2
2021-07-06T22:19:00Z,00000200,00000000,-000.57,-000.11,0000.10,-000.08,0000.46,-000.05,0000.47,0000.05,0000.04,19.5,25.8,05.2,03.5,0660.9,31.2
2021-07-06T22:20:00Z,00000200,00000000,0000.03,0000.24,0000.11,0000.12,-000.02,-000.18,0000.15,0000.08,0000.38,19.5,25.8,05.3,03.6,0660.9,31.2
2021-07-06T22:21:00Z,00000200,00000000,0000.08,0000.18,-000.14,0000.64,-000.05,-000.01,-000.63,-000.09,-000.24,19.6,25.9,05.2,03.6,0660.9,31.2
2021-07-06T22:22:00Z,00000200,00000000,-000.32,0000.24,0000.29,0000.44,-000.14,-000.11,-000.18,-000.04,-000.23,19.6,25.9,05.1,03.5,0660.9,31.2
2021-07-06T22:23:00Z,00000200,00000000,-000.22,-000.16,0000.21,0000.12,0000.35,0000.18,-000.02,-000.06,0000.20,19.7,25.9,05.0,03.4,0660.9,31.2
2021-07-06T22:24:00Z,00000200,00000000,-000.02,0000.07,0000.36,0000.18,0000.27,-000.12,-000.09,-000.32,-000.29,19.7,25.9,04.9,03.3,0660.8,31.2
2021-07-06T22:25:00Z,00000200,00000000,0000.65,0000.01,0000.08,0000.32,0000.24,0000.11,0000.38,0000.25,-000.09,19.7,25.9,04.8,03.3,0660.8,31.2
2021-07-06T22:26:00Z,00000200,00000000,-000.25,-000.01,-000.02,0000.33,0000.45,-000.19,-000.59,-000.29,-000.19,19.6,25.9,04.8,03.3,0660.8,31.2
2021-07-06T22:27:00Z,00000200,00000000,0000.07,-000.10,0000.12,0000.60,0000.21,0000.06,0000.06,0000.12,0000.12,19.6,25.9,04.6,03.1,0660.8,31.2
2021-07-06T22:28:00Z,00000200,00000000,-000.52,0000.24,0000.11,0000.52,0000.14,-000.01,-000.22,-000.37,-000.42,19.6,25.9,04.6,03.1,0660.8,31.2
2021-07-06T22:29:00Z,00000200,00000000,-000.32,0000.16,-000.01,0000.61,0000.08,0000.10,-000.07,0000.01,0000.10,19.6,25.8,04.5,03.0,0660.8,31.2
2021-07-06T22:30:00Z,00000200,00000000,0000.38,-000.16,0000.28,0000.82,0000.25,0000.29,-000.50,-000.37,-000.34,19.5,25.8,04.3,03.0,0660.8,31.2
2021-07-06T22:31:00Z,00000200,00000000,0000.25,-000.04,0000.03,0000.82,0000.12,0000.16,0000.17,-000.14,0000.24,19.5,25.8,04.3,02.9,0660.8,31.2
2021-07-06T22:32:00Z,00000200,00000000,0000.36,0000.26,0000.33,0000.61,-000.01,0000.39,-000.03,-000.03,0000.07,19.5,25.8,04.2,02.9,0660.8,31.2
2021-07-06T22:33:00Z,00000200,00000000,0000.21,-000.26,0000.11,0000.42,0000.26,0000.01,-000.24,-000.11,-000.25,19.4,25.8,04.1,02.8,0660.8,31.2
2021-07-06T22:34:00Z,00000200,00000000,-000.20,0000.11,-000.07,0000.04,0000.11,0000.01,-000.04,0000.01,-000.19,19.4,25.8,04.1,02.8,0660.7,31.2
2021-07-06T22:35:00Z,00000200,00000000,-000.08,0000.07,0000.10,0000.61,0000.35,0000.14,0000.26,0000.17,0000.54,19.4,25.8,04.2,02.8,0660.7,31.2
2021-07-06T22:36:00Z,00000200,00000000,-000.88,-000.13,-000.33,0000.36,-000.04,0000.02,-000.20,0000.11,0000.02,19.5,25.8,04.1,02.8,0660.7,31.2
2021-07-06T22:37:00Z,00000200,00000000,-000.39,0000.11,0000.01,0000.65,0000.41,-000.24,0000.35,0000.21,0000.03,19.5,25.8,04.2,02.8,0660.7,31.2
2021-07-06T22:38:00Z,00000200,00000000,-000.77,-000.01,-000.18,0000.32,0000.16,-000.21,0000.03,0000.18,0000.19,19.6,25.9,04.2,02.9,0660.7,31.2
2021-07-06T22:39:00Z,00000200,00000000,-000.46,-000.09,-000.03,0000.35,0000.51,-000.16,0000.50,-000.13,-000.06,19.7,25.9,04.3,03.0,0660.7,31.2
2021-07-06T22:40:00Z,00000200,00000000,-000.43,0000.33,0000.16,0000.74,0000.19,0000.20,-000.45,0000.04,-000.03,19.7,25.9,04.3,02.9,0660.7,31.2
2021-07-06T22:41:00Z,00000200,00000000,0000.57,0000.19,0000.01,0000.80,0000.01,-000.09,0000.23,0000.22,0000.23,19.7,25.9,04.4,03.0,0660.7,31.2
2021-07-06T22:42:00Z,00000200,00000000,-000.09,-000.18,-000.05,0000.23,0000.05,0000.03,-000.14,-000.08,-000.44,19.6,25.9,04.5,03.1,0660.7,31.2
2021-07-06T22:43:00Z,00000200,00000000,0000.03,0000.13,0000.02,0000.88,0000.39,0000.01,0000.50,0000.41,0000.55,19.6,25.9,04.5,03.1,0660.7,31.2
2021-07-06T22:44:00Z,00000200,00000000,0000.03,0000.39,-000.01,0000.48,0000.08,0000.17,-000.06,-000.17,0000.07,19.6,25.9,04.7,03.2,0660.7,31.2
2021-07-06T22:45:00Z,00000200,00000000,0000.22,0000.30,-000.04,0000.30,-000.06,-000.00,0000.58,0000.26,0000.24,19.6,25.9,04.8,03.3,0660.7,31.2
2021-07-06T22:46:00Z,00000200,00000000,0000.11,-000.01,-000.26,0000.77,0000.38,0000.02,-000.13,0000.02,-000.11,19.5,25.8,04.9,03.3,0660.7,31.2
2021-07-06T22:47:00Z,00000200,00000000,-000.15,0000.28,0000.27,0000.50,-000.06,0000.24,-000.10,0000.18,0000.01,19.5,25.8,04.8,03.2,0660.7,31.2
2021-07-06T22:48:00Z,00000200,00000000,-000.25,0000.07,0000.02,0000.55,0000.21,0000.12,0000.27,0000.06,0000.06,19.4,25.8,04.8,03.3,0660.7,31.2
2021-07-06T22:49:00Z,00000200,00000000,0000.39,0000.24,-000.25,0000.74,0000.40,0000.17,0000.54,0000.50,0000.34,19.4,25.8,05.1,03.4,0660.7,31.2
2021-07-06T22:50:00Z,00000200,00000000,0000.60,-000.06,-000.05,0000.50,-000.18,0000.33,-000.16,-000.15,-000.17,19.4,25.8,05.2,03.5,0660.6,31.2
2021-07-06T22:51:00Z,00000200,00000000,-000.02,0000.04,-000.05,0000.82,0000.16,-000.00,0000.08,-000.27,0000.14,19.5,25.8,05.0,03.4,0660.6,31.2
2021-07-06T22:52:00Z,00000200,00000000,0000.06,0000.26,0000.11,0000.24,0000.21,0000.27,0000.18,0000.29,-000.05,19.5,25.8,05.1,03.5,0660.6,31.2
2021-07-06T22:53:00Z,00000200,00000000,-000.18,0000.15,0000.72,0000.44,0000.01,0000.40,-000.57,-000.05,0000.07,19.6,25.9,05.1,03.5,0660.6,31.2
2021-07-06T22:54:00Z,00000200,00000000,0000.09,0000.18,-000.32,0000.74,0000.11,-000.04,-000.05,-000.60,-000.14,19.6,25.9,04.8,03.3,0660.6,31.2
2021-07-06T22:55:00Z,00000200,00000000,0000.07,0000.10,-000.36,0000.69,0000.24,0000.03,0000.19,0000.42,-000.08,19.7,25.9,04.7,03.2,0660.6,31.2
2021-07-06T22:56:00Z,00000200,00000000,-000.03,0000.13,-000.12,-000.02,0000.15,0000.03,-000.27,0000.22,0000.12,19.7,25.9,04.8,03.3,0660.6,31.2
2021-07-06T22:57:00Z,00000200,40000000,,,,,,,0000.50,0000.31,0000.18,19.7,25.9,04.8,03.3,0660.7,31.2
2021-07-06T22:58:00Z,00000200,60000000,,,,,,,0000.24,0000.02,0000.22,19.3,26.0,04.9,03.3,0659.7,31.2
2021-07-06T22:59:00Z,00000200,20000000,,,,,,,-000.20,0000.04,-000.03,19.3,26.1,05.0,03.3,0659.6,31.2
